[[{"header":{"parameterUnit":"m.s-1","parameterCategory":1,"la1":30.2991,"la2":30.254,"lo1":-89.0895,"lo2":-89.0444,"dy":0.0017,"dx":0.0017,"nx":28,"ny":28,"refTime":"2025-09-14T09:00:00:Z","depth":0,"parameterNumber":2,"parameterNumberName":"U-component_of_WINDS"},"data":[0,0,0,0,0,0,0,0,0,0,0,0,0,0,0,0,0,0,0,0,0,0,0,0,0,0,0,0,0,0,0,0,0,0,0,0,0,0,0,0,0,0,0,0,0,0,0,0,0,0,0,0,0,0,0,0,0,0,1.478,1.478,0,1.4786,1.4786,1.4786,1.4746,1.4745,1.4744,1.4743,1.4749,1.475,1.4751,0,0,0,0,0,0,0,0,0,0,0,0,0,1.4732,1.4733,1.478,1.478,1.478,1.4786,1.4786,1.4786,1.4746,1.4745,1.4744,1.4742,1.4748,1.475,1.4751,0,0,0,0,0,0,0,0,0,0,0,0,0,1.4747,1.4734,1.478,1.4761,1.4759,1.4786,1.4786,1.4786,1.4747,1.4745,1.4743,1.4742,1.4748,1.475,1.4751,1.4796,0,0,1.4757,1.4758,0,0,0,0,0,0,0,0,1.4746,1.4749,1.4763,1.4762,1.476,1.4763,1.4771,1.4789,1.4747,1.4751,1.4743,1.4741,1.4755,1.4756,1.4761,1.4796,1.4796,1.4757,1.4758,1.4759,1.4759,0,0,0,0,0,0,0,1.4745,1.4748,1.4782,1.4764,1.4762,1.4751,1.4752,1.4774,1.4763,1.4751,1.4748,1.4749,1.4754,1.4759,1.4761,1.4797,1.4757,1.4759,1.476,1.476,1.4866,1.4867,0,0,0,0,0,0,1.4747,1.4748,1.4782,1.4782,1.4749,1.4754,1.4754,1.4764,1.4762,1.476,1.4751,1.4747,1.4757,1.4759,1.4761,1.481,1.4759,1.4761,1.4762,1.4864,1.4866,1.4868,0,0,0,0,0,0,1.4746,1.475,1.4781,1.4764,1.4767,1.4756,1.4768,1.4765,1.477,1.4762,1.476,1.4759,1.4756,1.4758,1.4787,1.481,1.4761,1.4763,1.4862,1.4864,1.4867,1.4911,0,0,0,0,0,0,1.4745,1.475,1.4768,1.4765,1.4768,1.4808,1.477,1.4766,1.4774,1.4769,1.4769,1.4767,1.4755,1.4784,1.4789,1.4811,1.4764,1.486,1.4863,1.4866,1.4907,1.4914,1.4921,0,0,0,0,0,1.4743,1.478,1.4769,1.4773,1.479,1.4809,1.4811,1.4797,1.4776,1.4792,1.4787,1.4767,1.4807,1.4788,1.4792,1.4816,1.4858,1.4862,1.4866,1.4904,1.4913,1.4921,0,0,0,0,0,0,1.4786,1.478,1.4767,1.4804,1.4808,1.4803,1.4823,1.4807,1.4817,1.4812,1.4793,1.4793,1.4824,1.4823,1.4802,1.4857,1.4829,1.4834,1.4856,1.4865,1.4872,1.487,1.4766,0,0,0,0,0,1.48,1.4817,1.481,1.4844,1.4846,1.4835,1.4843,1.4831,1.4834,1.4835,1.4831,1.4835,1.4848,1.4857,1.4869,1.4908,1.4905,1.4926,1.4933,1.4938,1.4942,1.496,1.4968,1.488,1.488,1.488,0,0,1.4829,1.4827,1.4839,1.4852,1.4854,1.487,1.4836,1.4856,1.4868,1.4838,1.4864,1.4862,1.4864,1.4897,1.4911,1.4897,1.4966,1.4943,1.4948,1.4948,1.4964,1.4973,1.498,1.4883,1.4883,1.4882,0,0,1.4889,1.4891,1.4917,1.4919,1.4921,1.4913,1.492,1.4917,1.4914,1.494,1.4917,1.4931,1.4955,1.4956,1.496,1.5019,1.5,1.5024,1.5059,1.5076,1.5083,1.5089,1.5107,1.5114,1.5028,1.5028,1.5028,0,1.4924,1.4949,1.4933,1.4953,1.4959,1.4933,1.4958,1.4961,1.4967,1.4971,1.4955,1.4982,1.4983,1.5014,1.5028,1.5034,1.5039,1.5023,1.5083,1.5089,1.5094,1.5111,1.5118,1.5031,1.5031,1.503,1.503,0,1.499,1.5008,1.5029,1.5034,1.5042,1.5066,1.5052,1.5062,1.505,1.5043,1.5068,1.5068,1.5077,1.5085,1.5073,1.5114,1.5104,1.5087,1.5057,1.5105,1.5121,1.5128,1.5035,1.5034,1.5033,1.5032,0,0,1.5077,1.5072,1.508,1.5081,1.5081,1.5093,1.5115,1.5124,1.5132,1.5137,1.5153,1.5173,1.5156,1.516,1.5149,1.5164,1.5207,1.5144,1.5143,1.5153,1.5249,1.5261,1.5269,1.5196,1.5197,1.5198,1.5248,0,1.5133,1.5168,1.5154,1.5191,1.5205,1.518,1.5198,1.52,1.5194,1.5205,1.5199,1.5212,1.5189,1.5191,1.5206,1.5199,1.5226,1.5196,1.5209,1.5209,1.5206,1.5277,1.529,1.5337,1.5254,1.5255,1.5256,0,1.5203,1.5209,1.5247,1.5242,1.5247,1.5264,1.527,1.5281,1.5282,1.5277,1.5281,1.5266,1.5285,1.5258,1.5283,1.5262,1.5267,1.5265,1.5266,1.5264,1.5234,1.5274,1.5351,1.5357,1.5266,1.5265,1.5265,0,1.5258,1.5276,1.53,1.5302,1.5298,1.531,1.5309,1.5308,1.5314,1.5319,1.5322,1.5331,1.5334,1.5341,1.5327,1.5309,1.5353,1.5326,1.5347,1.5348,1.5356,1.5355,1.5431,1.5364,1.5364,1.5364,1.5364,0,1.532,1.5343,1.5324,1.5339,1.5364,1.5347,1.5372,1.5368,1.5367,1.538,1.536,1.5372,1.5355,1.5365,1.5355,1.5376,1.5379,1.5374,1.537,1.5374,1.5374,1.5374,1.537,1.5366,1.5365,1.5365,1.5365,0,1.5384,1.5374,1.5397,1.5391,1.539,1.5408,1.5402,1.5415,1.5408,1.5424,1.5427,1.5415,1.5426,1.5414,1.5424,1.5417,1.5444,1.5438,1.5444,1.5441,1.5462,1.5459,1.5539,1.5548,1.5478,1.5479,1.5479,0,1.5423,1.544,1.5435,1.5442,1.5442,1.5453,1.5458,1.5443,1.5449,1.545,1.5462,1.5471,1.5477,1.5496,1.5488,1.5495,1.5487,1.5514,1.5487,1.549,1.5483,1.5481,1.5481,1.5519,1.552,1.552,1.5521,0,1.5493,1.5486,1.5494,1.55,1.5506,1.5511,1.5513,1.552,1.5504,1.5512,1.5522,1.5527,1.5536,1.5545,1.5549,1.5548,1.5531,1.553,1.5535,1.5537,1.5538,1.5535,1.5455,1.5527,1.5527,1.5526,1.5526,1.5526,1.5543,1.5556,1.5554,1.5563,1.5563,1.5566,1.5576,1.557,1.5578,1.5584,1.5575,1.5587,1.5586,1.5591,1.5591,1.5599,1.5587,1.5595,1.5597,1.5598,1.56,1.5539,1.5601,1.56,1.56,1.56,1.56,0,1.5609,1.5606,1.5615,1.5618,1.5625,1.5609,1.5611,1.5617,1.5628,1.5628,1.5634,1.5645,1.5653,1.5646,1.5652,1.566,1.5652,1.5662,1.566,1.5659,1.5612,1.5605,1.5668,1.5668,1.5668,1.5668,1.5668,1.5668,1.5643,1.5663,1.5656,1.5675,1.5672,1.5683,1.5685,1.5686,1.5686,1.5699,1.5705,1.57,1.5697,1.5702,1.5708,1.5706,1.5708,1.5719,1.5714,1.5669,1.5663,1.5656,1.565,1.5721,1.5721,1.576,1.576,1.576]},{"header":{"parameterUnit":"m.s-1","parameterCategory":1,"la1":30.2991,"la2":30.254,"lo1":-89.0895,"lo2":-89.0444,"dy":0.0017,"dx":0.0017,"nx":28,"ny":28,"refTime":"2025-09-14T09:00:00:Z","depth":0,"parameterNumber":3,"parameterNumberName":"V-component_of_WINDS"},"data":[0,0,0,0,0,0,0,0,0,0,0,0,0,0,0,0,0,0,0,0,0,0,0,0,0,0,0,0,0,0,0,0,0,0,0,0,0,0,0,0,0,0,0,0,0,0,0,0,0,0,0,0,0,0,0,0,0,0,-0.3986,-0.3985,0,-0.3962,-0.3962,-0.3962,-0.3921,-0.392,-0.3919,-0.3919,-0.3895,-0.3895,-0.3896,0,0,0,0,0,0,0,0,0,0,0,0,0,-0.3997,-0.3997,-0.3986,-0.3985,-0.3985,-0.3962,-0.3962,-0.3962,-0.3921,-0.392,-0.3919,-0.3918,-0.3895,-0.3895,-0.3896,0,0,0,0,0,0,0,0,0,0,0,0,0,-0.3985,-0.3997,-0.3986,-0.3962,-0.396,-0.3962,-0.3962,-0.3961,-0.3921,-0.392,-0.3919,-0.3918,-0.3895,-0.3895,-0.3896,-0.3919,0,0,-0.3896,-0.3896,0,0,0,0,0,0,0,0,-0.3985,-0.3984,-0.3966,-0.3964,-0.3961,-0.3943,-0.3957,-0.3947,-0.3922,-0.3936,-0.3919,-0.3917,-0.3912,-0.3911,-0.3909,-0.3918,-0.3917,-0.3896,-0.3896,-0.3896,-0.3896,0,0,0,0,0,0,0,-0.3986,-0.3985,-0.3976,-0.3966,-0.3963,-0.3953,-0.395,-0.3955,-0.3931,-0.3935,-0.3932,-0.3929,-0.3911,-0.3909,-0.3908,-0.3917,-0.3896,-0.3896,-0.3896,-0.3896,-0.3945,-0.3946,0,0,0,0,0,0,-0.399,-0.3986,-0.3977,-0.3976,-0.3971,-0.3954,-0.395,-0.395,-0.3931,-0.3927,-0.393,-0.3927,-0.3909,-0.3908,-0.3907,-0.3934,-0.3896,-0.3896,-0.3896,-0.3944,-0.3945,-0.3947,0,0,0,0,0,0,-0.3991,-0.399,-0.3978,-0.398,-0.3978,-0.3955,-0.3955,-0.395,-0.3948,-0.3927,-0.3923,-0.3933,-0.3908,-0.3907,-0.3917,-0.3933,-0.3896,-0.3896,-0.3942,-0.3944,-0.3946,-0.3988,0,0,0,0,0,0,-0.3991,-0.399,-0.3999,-0.398,-0.3978,-0.3988,-0.3956,-0.3951,-0.3949,-0.3945,-0.3929,-0.3925,-0.3907,-0.3917,-0.3917,-0.3932,-0.3897,-0.3941,-0.3943,-0.3945,-0.3985,-0.3991,-0.3996,0,0,0,0,0,-0.3992,-0.4012,-0.4,-0.3999,-0.3988,-0.3989,-0.3987,-0.3966,-0.395,-0.3959,-0.3945,-0.3925,-0.3931,-0.3918,-0.3918,-0.3933,-0.394,-0.3942,-0.3945,-0.3982,-0.3989,-0.3996,0,0,0,0,0,0,-0.4033,-0.4009,-0.3995,-0.4009,-0.4001,-0.3982,-0.3992,-0.3975,-0.3971,-0.3968,-0.3942,-0.3939,-0.3952,-0.3944,-0.393,-0.3956,-0.3932,-0.3935,-0.3961,-0.3967,-0.3973,-0.3974,-0.3897,0,0,0,0,0,-0.4043,-0.4046,-0.4025,-0.404,-0.4036,-0.4015,-0.4015,-0.3999,-0.399,-0.3986,-0.3974,-0.3966,-0.3965,-0.3966,-0.3965,-0.3983,-0.398,-0.3994,-0.4,-0.4004,-0.4007,-0.4017,-0.4023,-0.3955,-0.3955,-0.3955,0,0,-0.4065,-0.4053,-0.4056,-0.4047,-0.4039,-0.4043,-0.4012,-0.4017,-0.4019,-0.3987,-0.3995,-0.3986,-0.3975,-0.399,-0.3995,-0.3983,-0.4025,-0.4008,-0.4012,-0.4012,-0.402,-0.4026,-0.4032,-0.3957,-0.3957,-0.3957,0,0,-0.4107,-0.4098,-0.4109,-0.4102,-0.409,-0.4076,-0.4079,-0.4062,-0.4054,-0.4062,-0.4038,-0.4041,-0.4041,-0.4034,-0.4031,-0.4072,-0.4053,-0.4072,-0.41,-0.411,-0.4116,-0.412,-0.4135,-0.414,-0.4075,-0.4075,-0.4075,0,-0.4136,-0.414,-0.4117,-0.4123,-0.4121,-0.4092,-0.4103,-0.4097,-0.4086,-0.4085,-0.4071,-0.4071,-0.4062,-0.4075,-0.4085,-0.4083,-0.4086,-0.4073,-0.4117,-0.4121,-0.4125,-0.4138,-0.4144,-0.4077,-0.4077,-0.4077,-0.4076,0,-0.4176,-0.4179,-0.419,-0.4179,-0.4178,-0.4187,-0.4166,-0.4167,-0.4152,-0.414,-0.4149,-0.4137,-0.4133,-0.4135,-0.412,-0.4145,-0.4138,-0.4121,-0.4097,-0.4134,-0.4146,-0.4151,-0.408,-0.408,-0.4079,-0.4078,0,0,-0.4242,-0.422,-0.4224,-0.4219,-0.4204,-0.4206,-0.4214,-0.421,-0.4212,-0.4205,-0.4211,-0.4213,-0.4197,-0.4193,-0.4178,-0.4186,-0.4219,-0.4168,-0.4167,-0.4178,-0.4247,-0.426,-0.4266,-0.4207,-0.4208,-0.4209,-0.4248,0,-0.4281,-0.4293,-0.4273,-0.429,-0.4292,-0.4265,-0.4272,-0.4264,-0.4253,-0.4254,-0.4241,-0.4243,-0.4222,-0.4219,-0.4227,-0.4214,-0.4233,-0.4211,-0.4213,-0.4213,-0.4216,-0.4272,-0.4286,-0.4323,-0.4252,-0.4253,-0.4254,0,-0.4327,-0.4323,-0.434,-0.4324,-0.4325,-0.4331,-0.4326,-0.4327,-0.4318,-0.4309,-0.4306,-0.4287,-0.4295,-0.4272,-0.4281,-0.4267,-0.4267,-0.4261,-0.4262,-0.4261,-0.4236,-0.4273,-0.4334,-0.434,-0.4261,-0.426,-0.426,0,-0.4374,-0.4372,-0.4382,-0.4379,-0.4361,-0.4366,-0.4359,-0.4349,-0.4348,-0.4343,-0.4343,-0.4339,-0.4338,-0.4336,-0.4318,-0.4303,-0.433,-0.4305,-0.4323,-0.4323,-0.433,-0.4329,-0.4392,-0.433,-0.433,-0.433,-0.433,0,-0.4419,-0.443,-0.4403,-0.4409,-0.4421,-0.4399,-0.4412,-0.4402,-0.4393,-0.4397,-0.4373,-0.4378,-0.4353,-0.4355,-0.4341,-0.4352,-0.4351,-0.4344,-0.4341,-0.4346,-0.4347,-0.4346,-0.4343,-0.4331,-0.4331,-0.4331,-0.433,0,-0.4473,-0.4455,-0.4464,-0.4447,-0.4443,-0.4452,-0.4438,-0.4443,-0.443,-0.4436,-0.4436,-0.4416,-0.4417,-0.4399,-0.4396,-0.4387,-0.4404,-0.4395,-0.4407,-0.4404,-0.4423,-0.4421,-0.4486,-0.4494,-0.4427,-0.4428,-0.4429,0,-0.4503,-0.4511,-0.4494,-0.4495,-0.4489,-0.4491,-0.449,-0.4469,-0.4469,-0.4459,-0.4465,-0.4464,-0.4463,-0.4466,-0.4452,-0.445,-0.4441,-0.4464,-0.4441,-0.4446,-0.4441,-0.4441,-0.4442,-0.4469,-0.447,-0.447,-0.4471,0,-0.4558,-0.4548,-0.4548,-0.4544,-0.4543,-0.4539,-0.4534,-0.4536,-0.4513,-0.4514,-0.4515,-0.4513,-0.4511,-0.451,-0.4506,-0.4499,-0.4481,-0.4478,-0.4482,-0.4488,-0.4495,-0.4492,-0.442,-0.4477,-0.4476,-0.4476,-0.4475,-0.4475,-0.46,-0.4606,-0.4596,-0.4596,-0.459,-0.4585,-0.4589,-0.4577,-0.4578,-0.4574,-0.4561,-0.4564,-0.4555,-0.4547,-0.4542,-0.4545,-0.4533,-0.4539,-0.4541,-0.4542,-0.4546,-0.4495,-0.4544,-0.4543,-0.4543,-0.4543,-0.4543,0,-0.4654,-0.4646,-0.4646,-0.4639,-0.464,-0.4623,-0.4616,-0.4618,-0.462,-0.4613,-0.4612,-0.4613,-0.4613,-0.4599,-0.4597,-0.4602,-0.4594,-0.4602,-0.4601,-0.46,-0.4556,-0.4553,-0.4609,-0.4609,-0.4609,-0.4609,-0.4609,-0.4609,-0.4682,-0.4691,-0.4681,-0.4688,-0.468,-0.4682,-0.468,-0.4676,-0.467,-0.4673,-0.4672,-0.4663,-0.4653,-0.4651,-0.465,-0.4646,-0.4646,-0.4657,-0.4651,-0.461,-0.4603,-0.4597,-0.4594,-0.4658,-0.4658,-0.4695,-0.4695,-0.4695]}]]